This is the latest recevied weather packets stored in our database for station/object OH3FZQ-2. If no packets are shown the sender has not sent any weather packets the latest 10 day(s).
| Time | Temp. | Humidity | Pressure | Rain* | Wind** | Luminosity | Snow |
|---|---|---|---|---|---|---|---|
| 1787493036 | 20° C | 67% | 990.7 hPa | 0 mm | 0 m/s | - | - |
| 1787492676 | 20.56° C | 65% | 990.7 hPa | 0 mm | 0 m/s | - | - |
| 1787492316 | 21.11° C | 64% | 990.7 hPa | 0 mm | 0 m/s | - | - |
| 1787491956 | 21.11° C | 64% | 990.7 hPa | 0 mm | 0 m/s | - | - |
| 1787491596 | 21.11° C | 64% | 990.7 hPa | 0 mm | 0 m/s | - | - |
| 1787491236 | 21.67° C | 63% | 989.7 hPa | 0 mm | 0 m/s | - | - |
| 1787490876 | 21.67° C | 64% | 989.7 hPa | 0 mm | 0 m/s | - | - |
| 1787490516 | 21.67° C | 65% | 989.7 hPa | 0 mm | 0 m/s | - | - |
| 1787490156 | 21.11° C | 64% | 989.7 hPa | 0 mm | 0 m/s | - | - |
| 1787489796 | 21.11° C | 64% | 989.7 hPa | 0 mm | 0 m/s | - | - |
| 1787489436 | 21.11° C | 65% | 989.7 hPa | 0 mm | 0 m/s | - | - |
| 1787489076 | 21.11° C | 68% | 989.7 hPa | 0 mm | 0 m/s | - | - |
| 1787488716 | 20.56° C | 69% | 989.7 hPa | 0 mm | 0 m/s | - | - |
| 1787488356 | 20.56° C | 68% | 989.7 hPa | 0 mm | 0 m/s | - | - |
| 1787487996 | 20.56° C | 68% | 989.7 hPa | 0 mm | 0 m/s | - | - |
| 1787487636 | 20.56° C | 70% | 989.7 hPa | 0 mm | 0 m/s | - | - |
| 1787487276 | 20° C | 68% | 989.7 hPa | 0 mm | 0 m/s | - | - |
| 1787486916 | 20° C | 70% | 989.7 hPa | 0 mm | 0 m/s | - | - |
| 1787486556 | 20° C | 71% | 989.7 hPa | 0 mm | 0 m/s | - | - |
| 1787486196 | 20° C | 71% | 989.7 hPa | 0 mm | 0 m/s | - | - |
| 1787485836 | 20° C | 72% | 988.7 hPa | 0 mm | 0 m/s | - | - |
| 1787485476 | 20° C | 72% | 988.7 hPa | 0 mm | 0 m/s | - | - |
| 1787485116 | 20° C | 72% | 988.7 hPa | 0 mm | 0 m/s | - | - |
| 1787484756 | 20° C | 73% | 988.7 hPa | 0 mm | 0 m/s | - | - |
| 1787484396 | 20° C | 74% | 988.7 hPa | 0 mm | 0 m/s | - | - |
* Rain latest hour (hover to see other rain measurements)
** Current wind speed in m/s (hover to see current wind gust speed)